Location: *
(46.9141°S, 164.5691°W)
Time: 00:35:55
(UTC+00:00)

Daily predictions for brighter satellites

Satellite Brightness Start Highest point End
(mag) Time Altitude Azimuth Time Altitude Azimuth Time Altitude Azimuth
USA 306 3.6 07:17:48 10° WNW 07:22:08 63° SSW 07:26:29 10° SE
BREEZE M DEB (TANK) 2.2 07:25:25 10° W 07:28:23 50° S 07:30:29 10° ESE
Gbstr 26 Del rocket 3.7 07:28:45 10° W 07:32:28 47° SSW 07:36:15 10° ESE
H-2A R/B 3.6 07:28:37 10° N 07:32:46 79° WNW 07:36:58 10° SSW
Cosmos 2151 3.1 07:31:49 10° S 07:36:10 83° W 07:40:28 10° N
FREGAT/IRIS 2.8 07:34:21 10° SSE 07:36:37 32° E 07:38:49 10° NNE
Cosmos 405 2.9 07:34:33 10° N 07:38:03 69° E 07:41:37 10° SSE
Ariane Rocket 3.3 07:33:33 10° SSE 07:38:32 48° E 07:43:27 10° N
CZ-2C R/B 3.2 07:37:49 10° NW 07:39:49 14° N 07:41:53 10° NNE
Cosmos 1538 Rocket 4.1 07:35:55 10° NNW 07:41:13 89° SW 07:46:39 10° SSE
FALCON 9 DEB 2.9 07:40:34 10° NW 07:43:47 71° NNE 07:47:03 10° ESE
FALCON 9 DEB 2.9 07:40:45 10° NW 07:43:57 63° NNE 07:47:12 10° ESE
FALCON 9 R/B 4.3 07:38:47 10° NW 07:45:37 43° NNE 08:08:52 10° E
H-2A R/B 3.9 07:41:45 10° S 07:46:21 34° WSW 07:50:49 10° NW
Cosmos 2369 Rocket 3.9 07:41:34 10° SW 07:46:32 31° WNW 07:51:29 10° NNW
Resurs 1-3 4.1 07:43:16 10° SSE 07:47:33 42° E 07:51:46 10° N
BREEZE-M DEB (TANK) 4.3 07:33:03 10° W 07:50:15 73° S 07:54:39 10° E
OBJECT-B 0.7 07:47:18 10° SSE 07:50:37 80° ENE 07:53:53 10° N
Cosmos-2242 3.3 07:47:29 10° NNW 07:51:54 76° W 07:56:25 10° S
Cosmos 1553 Rocket 4.1 07:45:48 10° N 07:52:03 88° W 07:58:16 10° S
Okean 3 Rocket 3.7 07:47:27 10° S 07:52:03 74° E 07:56:36 10° NNE
Cosmos 371 Rocket 3.8 07:47:57 10° SSW 07:52:47 49° ESE 07:56:53 14° NE
SPOT 3 Rocket 4.3 07:49:45 10° SSE 07:54:34 34° E 07:59:09 11° NNE
JB-3 4.5 07:51:13 10° N 07:55:05 73° WNW 07:59:04 10° SSW
Cosmos 1633 2.8 07:53:19 10° SSW 07:57:00 69° W 08:00:38 10° N
ASTEX 1 3.9 07:54:29 12° NE 07:58:43 44° ESE 08:03:26 10° S
Meteor 2-3 Rocket 3.9 07:53:03 10° SSW 07:58:57 80° W 08:04:48 10° N
Cosmos 1943 4.4 07:55:36 10° NW 08:01:02 48° SW 08:06:32 10° SSE
Cosmos 1766 Rocket 3.6 07:58:26 10° S 08:02:58 90° S 08:07:18 11° N
Cosmos 405 Rocket 2.8 08:04:11 10° S 08:08:13 87° E 08:11:39 14° N
Cosmos 2221 3.1 08:07:51 15° NNE 08:11:05 40° E 08:15:12 10° SSE
S3M 4.1 08:07:04 10° N 08:13:19 86° W 08:19:46 10° S
SL-4 R/B 3.1 08:10:30 10° W 08:14:32 45° S 08:18:17 10° ESE
Cosmos 1833 Rocket 4.4 08:13:28 13° ENE 08:14:41 13° E 08:17:18 10° ESE
Cosmos 389 Rocket 2.8 08:15:56 19° NNE 08:18:04 44° E 08:21:25 10° SSE
FALCON 9 DEB 3.2 08:15:30 10° WNW 08:18:45 72° SSW 08:22:03 10° ESE
MOS 1 4.4 08:14:46 10° SSE 08:20:32 85° WSW 08:26:15 10° NNW
Cosmos 1862 3.9 08:20:20 10° S 08:24:18 44° ESE 08:26:29 23° NE
USA 281 4.4 08:25:28 10° SE 08:30:24 22° E 08:32:40 18° NE
Cosmos 1842 Rocket 3.5 08:27:41 16° N 08:31:06 68° E 08:35:30 10° SSE
ARIANE 5 R/B 3.5 08:28:40 10° SSE 08:32:47 33° E 08:34:37 24° NE
FALCON 9 DEB 3.9 08:31:47 10° W 08:34:59 52° SSW 08:38:13 10° SE
Meteor 2-2 Rocket 4.4 08:36:40 12° N 08:42:16 77° E 08:48:19 10° SSE
ERBS 3.6 08:39:00 10° WNW 08:42:17 44° SSW 08:45:38 10° SE
Terra 3.5 08:39:36 10° SE 08:42:47 17° E 08:43:40 16° ENE
Cosmos 304 Rocket 3.8 08:38:17 10° SSW 08:43:11 72° ESE 08:45:51 27° NNE
Cosmos 1869 4.3 08:40:51 10° NNW 08:44:50 49° WSW 08:48:56 10° S
ATLAS 3B R/B 3.4 08:37:44 10° NW 08:45:12 65° SW 08:52:33 10° SE
GP-B 3.5 08:41:58 10° SSE 08:46:24 49° E 08:48:26 28° NNE
USA 215 4.1 08:42:05 18° N 08:46:34 39° NW 08:52:44 10° WSW
Sich 1 4.1 08:43:39 10° S 08:47:41 32° ESE 08:49:25 24° ENE
Cosmos 332 Rocket 3.8 08:44:39 10° SSW 08:49:37 81° WNW 08:52:21 27° NNE
Resurs 01 Rocket 1.8 08:45:53 10° S 08:50:26 74° WSW 08:54:32 12° NNW
Cosmos 1680 Rocket 3.8 08:45:18 10° NNW 08:50:32 69° WSW 08:55:51 10° SSE
Cosmos 1500 Rocket 3.5 08:47:41 10° S 08:52:12 85° E 08:54:30 29° NNE
USA 290 3.9 08:54:22 21° E 08:54:22 21° E 08:56:18 10° SE
Cosmos 1709 Rocket 4.3 08:47:42 10° SSW 08:54:06 67° W 08:59:08 17° N
Cosmos 1356 4.1 08:51:04 10° SSW 08:54:28 50° W 08:56:07 26° NNW
Cosmos 1408 Rocket 4.4 08:51:15 10° SSW 08:55:33 47° W 08:58:35 18° NNW
Spot 2 Rocket 3.7 08:52:14 10° SSE 08:57:18 52° E 08:59:48 28° NNE
Cosmos 1420 Rocket 4.0 08:55:23 10° SSW 09:00:40 72° ESE 09:03:14 30° NE
Cosmos 1980 Rocket 3.8 08:58:44 10° S 09:03:27 26° SE 09:07:21 13° E
Kosmos-1675 4.3 08:52:57 10° SW 09:04:35 76° WNW 09:06:20 33° NNE
ATLAS CENTAUR R/B 4.1 09:01:29 10° WSW 09:06:24 42° NW 09:12:51 21° NNE
IGS 5A 3.9 09:06:10 10° S 09:10:22 61° WSW 09:13:20 18° NNW
CARTOSAT-1 3.8 09:06:48 10° SSE 09:11:08 54° E 09:12:28 38° NNE
Cosmos 1607 4.2 09:06:44 10° SSW 09:12:47 61° SE 09:16:19 26° ENE
Exosat Rocket 3.8 09:10:44 10° SSW 09:15:59 86° ESE 09:19:13 31° NNE
USA 245 3.8 09:11:56 10° SSE 09:17:17 81° WSW 09:19:38 27° NNW
ERS-1 Rocket 3.2 09:13:26 10° SSE 09:18:25 51° E 09:20:07 36° NNE
Gbstr 26 Del rocket 3.8 09:16:04 10° WSW 09:19:45 44° S 09:23:29 11° E
Landsat 7 4.3 09:16:26 10° S 09:21:13 61° WSW 09:24:45 18° NNW
Cosmos 2184 Rocket 4.0 09:16:02 10° S 09:22:32 81° E 09:25:51 31° NNE
Cosmos 2056 Rocket 4.2 09:18:11 10° SSW 09:23:08 46° WNW 09:25:39 26° NNW
Meteor 1-4 Rocket 2.5 09:24:50 59° NE 09:25:16 65° E 09:28:54 10° SSE
SPOT 5 2.9 09:22:52 10° SSE 09:27:21 56° E 09:28:35 42° NNE
Cosmos 1452 Rocket 3.5 09:26:09 10° SSW 09:31:33 77° ESE 09:33:35 39° NE
Geosat 4.0 09:29:55 38° NNE 09:31:55 86° ESE 09:37:02 10° SSW
COSMOS 2406 3.2 09:30:22 32° N 09:32:58 64° ENE 09:38:39 10° SSE
Cosmos 1633 Rocket 3.4 09:33:57 10° S 09:38:21 53° ESE 09:39:19 44° ENE
CZ-4B DEB 4.2 09:35:25 10° SSE 09:38:47 78° E 09:38:47 78° E
EO 1 Del DPAF 3.2 09:38:59 59° NE 09:39:30 70° ESE 09:43:20 10° S
Cosmos 2327 Rocket 4.5 09:34:16 10° S 09:40:27 75° E 09:43:05 37° NNE
Cosmos 1602 4.5 09:37:53 10° S 09:41:41 39° ESE 09:42:09 38° E
Thor Agena Rocket 3.8 09:42:13 35° NNW 09:44:19 62° WNW 09:49:31 10° SSW
Cosmos 1805 Rocket 4.1 09:40:15 10° SSW 09:44:41 53° W 09:46:09 36° NNW
Cosmos 1697 Rocket 2.7 09:39:09 10° SSW 09:44:53 80° ESE 09:47:02 40° NE
Cosmos 292 Rocket 4.1 09:44:34 10° SSW 09:49:27 58° ESE 09:50:55 41° ENE
Cosmos 1606 3.4 09:48:26 35° NW 09:49:42 50° WSW 09:53:36 10° S
Cosmos 2074 Rocket 4.3 09:44:08 10° SSW 09:50:21 63° W 09:53:25 31° NNW
Meteor 1-20 Rocket 4.3 09:44:28 10° S 09:50:26 85° E 09:52:40 40° NNE
SL-4 R/B 2.8 09:50:47 10° WSW 09:54:38 45° S 09:56:45 22° ESE
Lacrosse 5 3.7 09:58:47 17° E 09:58:47 17° E 10:00:36 10° ESE
Cosmos 2369 3.7 09:51:18 10° SSW 09:57:06 81° ESE 09:59:08 42° NE
PSLV R/B 4.0 09:56:49 44° ENE 09:57:38 51° ESE 10:01:56 10° S
Cosmos 1833 Rocket 2.6 09:55:07 34° NNW 09:57:41 84° ENE 10:03:25 10° SSE
Cosmos 1900 4.3 09:53:57 10° SSW 09:58:55 78° SE 10:00:20 47° NE
Cosmos 2082 Rocket 2.5 09:58:05 42° NE 09:59:16 49° ENE 10:04:44 10° SE
Nadezhda 1 Rocket 4.0 09:56:33 34° N 09:59:31 87° W 10:06:01 10° S
Cosmos 1666 Rocket 3.6 09:56:00 10° SSW 10:00:30 76° W 10:01:23 55° NNW
deb Kosmos-1763 3.9 10:01:34 78° SE 10:01:34 78° SE 10:05:00 10° SSE
ARIANE 5 R/B 4.3 10:05:12 10° S 10:09:09 30° WSW 10:12:09 15° WNW
BREEZE-M R/B 4.5 10:12:28 38° N 10:14:14 49° NE 10:22:25 10° ESE
Cosmos 1933 3.9 10:14:10 45° WNW 10:14:59 54° WSW 10:19:05 10° S
USA 281 3.2 10:08:52 10° SSE 10:15:33 81° WSW 10:19:31 26° NW
Terra 2.1 10:16:10 10° S 10:20:58 63° WSW 10:22:33 40° NW
USA 307 4.5 10:17:44 10° WSW 10:21:50 36° SSE 10:25:55 10° E
FALCON 9 DEB 3.5 10:18:27 10° WSW 10:21:34 64° SW 10:21:34 64° SW
Cosmos 1331 Rocket 3.9 10:16:57 10° SSW 10:22:14 87° ESE 10:23:30 54° NNE
SL-16 R/B 3.6 10:21:19 10° SSW 10:26:27 32° SE 10:30:01 17° ENE
USA 290 4.3 10:27:04 20° W 10:27:58 23° WSW 10:30:42 10° S
Cosmos 1328 Rocket 3.7 10:29:01 55° NW 10:29:43 65° W 10:34:08 10° S
Cosmos 2341 Rocket 4.0 10:23:38 10° S 10:29:59 88° W 10:32:08 45° N
Cosmos 1782 2.8 10:30:07 69° WNW 10:30:21 72° W 10:34:26 10° S
USA 308 4.4 10:26:26 10° SW 10:30:35 37° SSE 10:34:41 10° E
USA 305 4.4 10:27:29 10° SW 10:31:37 38° SSE 10:35:43 10° E
Cosmos 2360 Rocket 4.4 10:28:26 10° S 10:32:33 20° SE 10:36:39 10° E
Cosmos 2322 Rocket 3.8 10:27:44 10° SSW 10:32:47 30° SE 10:36:46 15° ENE
Cosmos 1110 Rocket 4.0 10:27:51 10° SSW 10:33:05 70° WNW 10:34:06 55° NNW
Resurs 1-4 Rocket 3.4 10:36:08 23° ENE 10:38:30 33° ESE 10:43:16 10° S
Cosmos 1151 Rocket 3.9 10:39:29 37° WNW 10:40:25 43° WSW 10:44:36 10° S
USA 306 4.2 10:39:19 10° SW 10:43:28 41° SSE 10:47:37 10° E
Cosmos 2278 3.7 10:37:58 10° SSW 10:43:42 71° WNW 10:45:01 52° N
Cosmos 2366 rocket 4.0 10:38:08 10° S 10:44:30 76° E 10:46:32 45° NNE
Cosmos 1869 Rocket 4.3 10:40:06 10° S 10:44:30 44° ESE 10:45:12 40° E
CZ-2D R/B 3.3 10:42:41 25° ENE 10:44:51 35° ESE 10:49:39 10° S
Meteor 1-11 Rocket 4.3 10:40:32 10° S 10:46:04 48° ESE 10:48:02 35° ENE
Meteor 2-6 Rocket 4.3 10:45:55 50° NNE 10:47:21 71° E 10:53:02 10° SSE
Cosmos 1980 Rocket 2.3 10:42:19 10° SSW 10:47:56 64° WNW 10:49:05 51° NNW
Cosmos 2228 Rocket 3.3 10:50:15 56° ENE 10:50:36 58° E 10:55:09 10° SSE
ADEOS II 4.1 10:50:22 11° ENE 10:53:51 21° ESE 10:57:44 10° SSE
Helios 1B rocket 2.8 10:54:07 51° E 10:54:31 53° ESE 10:58:37 10° S
Cosmos 1238 Rocket 3.7 10:52:25 10° S 10:55:49 38° ESE 10:55:51 38° E
SL-8 Rocket 4.0 10:50:14 10° SSW 10:56:30 74° W 10:58:26 46° NNW
Spot 4 3.8 10:52:17 10° SSE 10:57:12 71° ENE 10:57:53 61° NNE
Meteor 1-5 Rocket 4.3 10:51:39 10° SSW 10:57:45 86° W 10:59:26 50° N
Gbstr 26 Del rocket 3.2 11:02:45 10° WSW 11:05:58 55° W 11:05:58 55° W
USA 81 4.2 11:04:39 10° S 11:10:01 69° E 11:11:14 51° NE
Cosmos 1269 Rocket 4.0 11:09:32 53° NW 11:10:50 81° WSW 11:16:16 10° SSE
Cosmos 1515 Rocket 4.3 11:10:15 39° WNW 11:10:59 42° WSW 11:15:16 10° S
NOSS 3-1 (C) 4.1 11:05:30 24° NW 11:11:17 82° SW 11:18:56 10° SE
ALOS 2 2.7 11:10:17 10° SSE 11:14:44 61° E 11:15:00 60° ENE
Cosmos 1437 Rocket 3.4 11:18:41 45° W 11:18:53 46° WSW 11:22:48 10° S
Cosmos 1666 2.9 11:16:01 10° SSW 11:19:40 67° WSW 11:19:40 67° WSW
Cosmos 1536 3.0 11:16:04 10° S 11:20:07 61° ESE 11:20:15 60° E
Meteor 1-10 Rocket 4.3 11:23:25 48° NNW 11:25:03 75° WSW 11:30:49 10° S
Cosmos 1821 Rocket 4.1 11:19:37 10° S 11:25:52 70° E 11:28:09 41° NNE
Cosmos 1812 3.6 11:26:06 41° W 11:26:10 41° WSW 11:29:55 10° S
USA 229 DEB 3.9 11:22:15 32° NW 11:26:16 85° SW 11:33:38 10° SE
USA 229 3.9 11:22:22 32° NW 11:26:22 86° SW 11:33:44 10° SE
Cosmos 1697 Rocket 4.5 11:24:36 10° WSW 11:28:07 17° W 11:28:45 17° WNW
Cosmos 1707 Rocket 3.8 11:29:17 56° ENE 11:29:41 59° E 11:34:07 10° SSE
Cosmos 2251 Rocket 4.0 11:31:47 42° NE 11:32:46 47° ENE 11:37:57 10° SSE
SL-4 R/B 3.5 11:30:36 10° WSW 11:32:16 24° WSW 11:32:16 24° WSW
SL-19 R/B 4.3 11:33:59 50° N 11:35:36 81° WNW 11:41:38 10° SSW
Lacrosse 5 1.8 11:37:56 51° NW 11:39:17 87° SW 11:44:30 10° SE
Landsat 4 4.2 11:40:27 51° WSW 11:40:27 51° WSW 11:43:55 10° SSW
Cosmos 2333 Rocket 4.1 11:38:29 10° S 11:43:25 28° SE 11:48:18 10° ENE
Cosmos 2082 Rocket 3.6 11:39:54 16° WNW 11:43:35 32° SW 11:48:38 10° SSE
NOSS 3-1 (A) 4.1 11:38:32 28° NW 11:43:38 81° SW 11:51:17 10° SE
SL-27 R/B 3.0 11:46:45 54° ESE 11:46:45 54° ESE 11:49:54 10° SSE
FALCON 9 DEB 4.4 11:44:42 10° SW 11:47:51 39° SSE 11:50:58 10° E
Cosmos 2219 Rocket 4.1 11:43:02 10° S 11:47:51 27° SE 11:52:36 10° ENE
Cosmos 1733 Rocket 3.3 11:45:18 10° S 11:49:50 68° E 11:50:39 55° NE
Cosmos 1242 Rocket 2.9 11:53:12 57° SW 11:53:12 57° SW 11:56:30 10° S
Meteor 1-29 3.5 11:53:39 52° SW 11:53:39 52° SW 11:56:36 10° SSW
